Weather History for KGDP - May, 2013

Change the Weather History Date:

Thursday, May 23, 2013

  Actual Average Record
Temperature  
Mean Temperature 77 °F -  
Max Temperature 96 °F 82 °F 100 °F (2005)
Min Temperature 61 °F 58 °F 55 °F (1997)
Cooling Degree Days 12    
Growing Degree Days 27 (Base 50)    
Moisture  
Dew Point 36 °F    
Average Humidity 27    
Maximum Humidity 67    
Minimum Humidity 8    
Precipitation  
Precipitation 0.00 in - - ()
Sea Level Pressure  
Sea Level Pressure 29.80 in    
Wind  
Wind Speed 13 mph (SW)    
Max Wind Speed 38 mph    
Max Gust Speed 43 mph    
Visibility 7 miles    
Events      
Averages and records for this station are not official NWS values.
T = Trace of Precipitation, MM = Missing Value Source: NWS Daily Summary

Daily Weather History Graph

Daily Weather History Graph

Search for Another Location

Airport or City:

Trip Planner

Search our weather history database for the weather conditions in past years. The results will help you decide how hot, cold, wet, or windy it might be!

Date:

Astronomy

May. 23, 2013 Rise Set
Actual Time 5:57 AM MDT 7:54 PM MDT
Civil Twilight 5:30 AM MDT 8:22 PM MDT
Nautical Twilight 4:57 AM MDT 8:55 PM MDT
Astronomical Twilight 4:21 AM MDT 9:30 PM MDT
Moon 6:34 PM MDT (5/23) 4:38 AM MDT (5/23)
Length of Visible Light 14h 51m
Length of Day
13h 57m
Waxing Gibbous, 97% of the Moon is Illuminated
May 23
Waxing Gibbous
May 24
Full
May 31
Last Quarter
Jun 8
New
Jun 16
First Quarter

Hourly Weather History & Observations

Time (MDT) Temp. Dew Point Humidity Pressure Visibility Wind Dir Wind Speed Gust Speed Precip Events Conditions
12:51 AM 75.0 °F 10.0 °F 8% 29.71 in 9.0 mi SSW 8.1 mph - N/A   Clear
1:51 AM 72.0 °F 10.0 °F 9% 29.72 in 9.0 mi WSW 8.1 mph - N/A   Clear
2:51 AM 73.0 °F 10.9 °F 9% 29.72 in 9.0 mi South 9.2 mph - N/A   Clear
3:51 AM 73.0 °F 12.0 °F 10% 29.73 in 9.0 mi SW 9.2 mph - N/A   Clear
4:51 AM 73.0 °F 27.0 °F 18% 29.73 in 8.0 mi WSW 8.1 mph - N/A   Clear
5:51 AM 72.0 °F 34.0 °F 25% 29.76 in 7.0 mi SW 12.7 mph - N/A   Clear
6:51 AM 70.0 °F 41.0 °F 35% 29.80 in 6.0 mi WSW 10.4 mph - N/A   Haze
7:51 AM 73.0 °F 44.1 °F 35% 29.82 in 6.0 mi South 6.9 mph - N/A   Haze
8:51 AM 75.9 °F 36.0 °F 23% 29.81 in 6.0 mi WNW 5.8 mph - N/A   Haze
9:51 AM 82.9 °F 37.0 °F 19% 29.79 in 7.0 mi SW 13.8 mph - N/A   Clear
10:51 AM 84.0 °F 37.0 °F 19% 29.80 in 7.0 mi WSW 9.2 mph - N/A   Clear
11:51 AM 87.1 °F 43.0 °F 21% 29.80 in 6.0 mi SW 8.1 mph - N/A   Haze
12:51 PM 88.0 °F 46.0 °F 23% 29.78 in 6.0 mi Variable 4.6 mph - N/A   Haze
1:51 PM 93.0 °F 43.0 °F 18% 29.74 in 6.0 mi SW 18.4 mph 27.6 mph N/A   Haze
2:51 PM 93.9 °F 44.1 °F 18% 29.69 in 6.0 mi WSW 20.7 mph 38.0 mph N/A   Haze
3:51 PM 87.1 °F 44.1 °F 22% 29.70 in 6.0 mi WSW 11.5 mph - N/A   Haze
4:41 PM 80.1 °F 37.9 °F 22% 29.97 in 7.0 mi East 38.0 mph - N/A   Scattered Clouds
4:51 PM 80.1 °F 37.9 °F 22% 29.72 in 7.0 mi ENE 31.1 mph - N/A   Mostly Cloudy
6:33 PM 69.1 °F 46.9 °F 45% 30.05 in 7.0 mi East 28.8 mph 35.7 mph N/A   Scattered Clouds
6:51 PM 69.1 °F 46.9 °F 45% 29.86 in 7.0 mi ESE 31.1 mph 40.3 mph N/A   Mostly Cloudy
8:51 PM 61.0 °F 48.9 °F 64% 29.87 in 8.0 mi ENE 33.4 mph 42.6 mph N/A   Clear
9:51 PM 61.0 °F 50.0 °F 67% 29.87 in 8.0 mi ENE 26.5 mph 36.8 mph N/A   Clear
11:51 PM 64.0 °F 46.0 °F 52% 29.86 in 8.0 mi ENE 9.2 mph - N/A   Clear